iso_date,epoch_date,Year,Hour,Min,DOY,POS_DOY,Lat,Lon,BP,Ts,Ta,has_bp,has_ts,has_ta,BuoyID,Buoy_Type,Buoy_Owner,Logistics,Hemisphere
2014-01-10T07:59:31Z,1389340771,2014,8,0,10.333,10.25,57.0996,-31.4412,995.1,7.79,-999.0,yes,yes,no,300234011756730,BD2GI,AOML,SELFOSS,North
2014-01-10T09:00:00Z,1389344400,2014,9,0,10.375,10.375,57.0964,-31.4058,995.2,7.78,-999.0,yes,yes,no,300234011756730,BD2GI,AOML,SELFOSS,North
2014-01-10T10:00:28Z,1389348029,2014,10,0,10.417,10.375,57.0964,-31.4058,995.4,7.73,-999.0,yes,yes,no,300234011756730,BD2GI,AOML,SELFOSS,North
2014-01-10T10:59:31Z,1389351571,2014,11,0,10.458,10.375,57.0964,-31.4058,995.5,7.73,-999.0,yes,yes,no,300234011756730,BD2GI,AOML,SELFOSS,North
2014-01-10T12:00:00Z,1389355200,2014,12,0,10.5,10.5,57.0902,-31.3882,995.5,7.72,-999.0,yes,yes,no,300234011756730,BD2GI,AOML,SELFOSS,North
2014-01-10T13:00:28Z,1389358829,2014,13,0,10.542,10.5,57.0902,-31.3882,995.2,7.71,-999.0,yes,yes,no,300234011756730,BD2GI,AOML,SELFOSS,North
2014-01-10T13:59:31Z,1389362371,2014,14,0,10.583,10.5,57.0902,-31.3882,994.9,7.72,-999.0,yes,yes,no,300234011756730,BD2GI,AOML,SELFOSS,North
2014-01-10T15:00:00Z,1389366000,2014,15,0,10.625,10.625,57.0876,-31.3834,994.9,7.7,-999.0,yes,yes,no,300234011756730,BD2GI,AOML,SELFOSS,North
2014-01-10T16:00:28Z,1389369629,2014,16,0,10.667,10.625,57.0876,-31.3834,995.0,7.7,-999.0,yes,yes,no,300234011756730,BD2GI,AOML,SELFOSS,North
2014-01-10T16:59:31Z,1389373171,2014,17,0,10.708,10.625,57.0876,-31.3834,995.2,7.66,-999.0,yes,yes,no,300234011756730,BD2GI,AOML,SELFOSS,North
2014-01-10T18:00:00Z,1389376800,2014,18,0,10.75,10.75,57.0782,-31.3714,995.7,7.59,-999.0,yes,yes,no,300234011756730,BD2GI,AOML,SELFOSS,North
2014-01-10T19:00:28Z,1389380429,2014,19,0,10.792,10.75,57.0782,-31.3714,996.3,7.61,-999.0,yes,yes,no,300234011756730,BD2GI,AOML,SELFOSS,North
2014-01-10T19:59:31Z,1389383971,2014,20,0,10.833,10.75,57.0782,-31.3714,997.0,7.61,-999.0,yes,yes,no,300234011756730,BD2GI,AOML,SELFOSS,North
2014-01-10T21:00:00Z,1389387600,2014,21,0,10.875,10.875,57.0802,-31.3452,997.3,7.63,-999.0,yes,yes,no,300234011756730,BD2GI,AOML,SELFOSS,North
2014-01-10T22:00:28Z,1389391229,2014,22,0,10.917,10.875,57.0802,-31.3452,998.2,7.63,-999.0,yes,yes,no,300234011756730,BD2GI,AOML,SELFOSS,North
2014-01-10T22:59:31Z,1389394771,2014,23,0,10.958,10.875,57.0802,-31.3452,998.8,7.63,-999.0,yes,yes,no,300234011756730,BD2GI,AOML,SELFOSS,North
2014-01-11T00:00:00Z,1389398400,2014,0,0,11.0,11.0,57.0878,-31.3198,999.2,7.62,-999.0,yes,yes,no,300234011756730,BD2GI,AOML,SELFOSS,North
2014-01-11T01:00:28Z,1389402029,2014,1,0,11.042,11.0,57.0878,-31.3198,999.6,7.6,-999.0,yes,yes,no,300234011756730,BD2GI,AOML,SELFOSS,North
2014-01-11T01:59:31Z,1389405571,2014,2,0,11.083,11.0,57.0878,-31.3198,1000.0,7.6,-999.0,yes,yes,no,300234011756730,BD2GI,AOML,SELFOSS,North
2014-01-11T03:00:00Z,1389409200,2014,3,0,11.125,11.125,57.0954,-31.289,999.8,7.62,-999.0,yes,yes,no,300234011756730,BD2GI,AOML,SELFOSS,North
2014-01-11T04:00:28Z,1389412829,2014,4,0,11.167,11.125,57.0954,-31.289,1000.2,7.61,-999.0,yes,yes,no,300234011756730,BD2GI,AOML,SELFOSS,North
2014-01-11T04:59:31Z,1389416371,2014,5,0,11.208,11.125,57.0954,-31.289,1000.4,7.6,-999.0,yes,yes,no,300234011756730,BD2GI,AOML,SELFOSS,North
2014-01-11T06:00:00Z,1389420000,2014,6,0,11.25,11.25,57.0972,-31.2534,1000.8,7.61,-999.0,yes,yes,no,300234011756730,BD2GI,AOML,SELFOSS,North
2014-01-11T07:00:28Z,1389423629,2014,7,0,11.292,11.25,57.0972,-31.2534,1001.3,7.57,-999.0,yes,yes,no,300234011756730,BD2GI,AOML,SELFOSS,North
2014-01-11T07:59:31Z,1389427171,2014,8,0,11.333,11.25,57.0972,-31.2534,1001.8,7.59,-999.0,yes,yes,no,300234011756730,BD2GI,AOML,SELFOSS,North
2014-01-11T09:00:00Z,1389430800,2014,9,0,11.375,11.375,57.0834,-31.2322,1001.6,7.58,-999.0,yes,yes,no,300234011756730,BD2GI,AOML,SELFOSS,North
2014-01-11T10:00:28Z,1389434429,2014,10,0,11.417,11.375,57.0834,-31.2322,1001.9,7.61,-999.0,yes,yes,no,300234011756730,BD2GI,AOML,SELFOSS,North
2014-01-11T10:59:31Z,1389437971,2014,11,0,11.458,11.375,57.0834,-31.2322,1001.3,7.61,-999.0,yes,yes,no,300234011756730,BD2GI,AOML,SELFOSS,North
2014-01-11T12:00:00Z,1389441600,2014,12,0,11.5,11.5,57.0686,-31.214,1001.0,7.62,-999.0,yes,yes,no,300234011756730,BD2GI,AOML,SELFOSS,North
2014-01-11T13:00:28Z,1389445229,2014,13,0,11.542,11.5,57.0686,-31.214,1000.5,7.62,-999.0,yes,yes,no,300234011756730,BD2GI,AOML,SELFOSS,North
2014-01-11T13:59:31Z,1389448771,2014,14,0,11.583,11.5,57.0686,-31.214,998.8,7.61,-999.0,yes,yes,no,300234011756730,BD2GI,AOML,SELFOSS,North
2014-01-11T15:00:00Z,1389452400,2014,15,0,11.625,11.625,57.0474,-31.2324,997.1,7.61,-999.0,yes,yes,no,300234011756730,BD2GI,AOML,SELFOSS,North
2014-01-11T16:00:28Z,1389456029,2014,16,0,11.667,11.625,57.0474,-31.2324,995.4,7.59,-999.0,yes,yes,no,300234011756730,BD2GI,AOML,SELFOSS,North
2014-01-11T16:59:31Z,1389459571,2014,17,0,11.708,11.625,57.0474,-31.2324,994.3,7.58,-999.0,yes,yes,no,300234011756730,BD2GI,AOML,SELFOSS,North
2014-01-11T18:00:00Z,1389463200,2014,18,0,11.75,11.75,57.02,-31.2968,993.3,7.6,-999.0,yes,yes,no,300234011756730,BD2GI,AOML,SELFOSS,North
2014-01-11T19:00:28Z,1389466829,2014,19,0,11.792,11.75,57.02,-31.2968,992.1,7.59,-999.0,yes,yes,no,300234011756730,BD2GI,AOML,SELFOSS,North
2014-01-11T19:59:31Z,1389470371,2014,20,0,11.833,11.75,57.02,-31.2968,990.3,7.58,-999.0,yes,yes,no,300234011756730,BD2GI,AOML,SELFOSS,North
2014-01-11T21:00:00Z,1389474000,2014,21,0,11.875,11.875,56.9958,-31.3674,988.3,7.56,-999.0,yes,yes,no,300234011756730,BD2GI,AOML,SELFOSS,North
2014-01-11T22:00:28Z,1389477629,2014,22,0,11.917,11.875,56.9958,-31.3674,986.4,7.56,-999.0,yes,yes,no,300234011756730,BD2GI,AOML,SELFOSS,North
2014-01-11T22:59:31Z,1389481171,2014,23,0,11.958,11.875,56.9958,-31.3674,984.3,7.58,-999.0,yes,yes,no,300234011756730,BD2GI,AOML,SELFOSS,North
2014-01-12T00:00:00Z,1389484800,2014,0,0,12.0,12.0,56.9672,-31.4194,982.5,7.6,-999.0,yes,yes,no,300234011756730,BD2GI,AOML,SELFOSS,North
2014-01-12T01:00:28Z,1389488429,2014,1,0,12.042,12.0,56.9672,-31.4194,980.7,7.62,-999.0,yes,yes,no,300234011756730,BD2GI,AOML,SELFOSS,North
2014-01-12T01:59:31Z,1389491971,2014,2,0,12.083,12.0,56.9672,-31.4194,978.9,7.62,-999.0,yes,yes,no,300234011756730,BD2GI,AOML,SELFOSS,North
2014-01-12T03:00:00Z,1389495600,2014,3,0,12.125,12.125,56.9276,-31.4302,977.1,7.64,-999.0,yes,yes,no,300234011756730,BD2GI,AOML,SELFOSS,North
2014-01-12T04:00:28Z,1389499229,2014,4,0,12.167,12.125,56.9276,-31.4302,975.7,7.61,-999.0,yes,yes,no,300234011756730,BD2GI,AOML,SELFOSS,North
2014-01-12T04:59:31Z,1389502771,2014,5,0,12.208,12.125,56.9276,-31.4302,974.5,7.59,-999.0,yes,yes,no,300234011756730,BD2GI,AOML,SELFOSS,North
2014-01-12T06:00:00Z,1389506400,2014,6,0,12.25,12.25,56.882,-31.4208,973.0,7.54,-999.0,yes,yes,no,300234011756730,BD2GI,AOML,SELFOSS,North
2014-01-12T07:00:28Z,1389510029,2014,7,0,12.292,12.25,56.882,-31.4208,972.0,7.49,-999.0,yes,yes,no,300234011756730,BD2GI,AOML,SELFOSS,North
2014-01-12T07:59:31Z,1389513571,2014,8,0,12.333,12.25,56.882,-31.4208,971.3,7.5,-999.0,yes,yes,no,300234011756730,BD2GI,AOML,SELFOSS,North
2014-01-12T09:00:00Z,1389517200,2014,9,0,12.375,12.375,56.847,-31.3848,970.7,7.48,-999.0,yes,yes,no,300234011756730,BD2GI,AOML,SELFOSS,North
2014-01-12T10:00:28Z,1389520829,2014,10,0,12.417,12.375,56.847,-31.3848,969.9,7.5,-999.0,yes,yes,no,300234011756730,BD2GI,AOML,SELFOSS,North
2014-01-12T10:59:31Z,1389524371,2014,11,0,12.458,12.375,56.847,-31.3848,969.7,7.5,-999.0,yes,yes,no,300234011756730,BD2GI,AOML,SELFOSS,North
2014-01-12T12:00:00Z,1389528000,2014,12,0,12.5,12.5,56.8154,-31.32,969.5,7.49,-999.0,yes,yes,no,300234011756730,BD2GI,AOML,SELFOSS,North
2014-01-12T13:00:28Z,1389531629,2014,13,0,12.542,12.5,56.8154,-31.32,969.8,7.47,-999.0,yes,yes,no,300234011756730,BD2GI,AOML,SELFOSS,North
2014-01-12T13:59:31Z,1389535171,2014,14,0,12.583,12.5,56.8154,-31.32,969.4,7.51,-999.0,yes,yes,no,300234011756730,BD2GI,AOML,SELFOSS,North
2014-01-12T15:00:00Z,1389538800,2014,15,0,12.625,12.625,56.7704,-31.266,969.3,7.54,-999.0,yes,yes,no,300234011756730,BD2GI,AOML,SELFOSS,North
2014-01-12T16:00:28Z,1389542429,2014,16,0,12.667,12.625,56.7704,-31.266,969.3,7.79,-999.0,yes,yes,no,300234011756730,BD2GI,AOML,SELFOSS,North
2014-01-12T16:59:31Z,1389545971,2014,17,0,12.708,12.625,56.7704,-31.266,970.0,7.91,-999.0,yes,yes,no,300234011756730,BD2GI,AOML,SELFOSS,North
2014-01-12T18:00:00Z,1389549600,2014,18,0,12.75,12.75,56.7324,-31.2296,969.8,7.87,-999.0,yes,yes,no,300234011756730,BD2GI,AOML,SELFOSS,North
2014-01-12T19:00:28Z,1389553229,2014,19,0,12.792,12.75,56.7324,-31.2296,971.3,7.82,-999.0,yes,yes,no,300234011756730,BD2GI,AOML,SELFOSS,North
2014-01-12T19:59:31Z,1389556771,2014,20,0,12.833,12.75,56.7324,-31.2296,971.8,7.67,-999.0,yes,yes,no,300234011756730,BD2GI,AOML,SELFOSS,North
2014-01-12T21:00:00Z,1389560400,2014,21,0,12.875,12.875,56.724,-31.162,971.9,7.73,-999.0,yes,yes,no,300234011756730,BD2GI,AOML,SELFOSS,North
2014-01-12T22:00:28Z,1389564029,2014,22,0,12.917,12.875,56.724,-31.162,972.4,7.72,-999.0,yes,yes,no,300234011756730,BD2GI,AOML,SELFOSS,North
2014-01-12T22:59:31Z,1389567571,2014,23,0,12.958,12.875,56.724,-31.162,973.3,7.71,-999.0,yes,yes,no,300234011756730,BD2GI,AOML,SELFOSS,North
2014-01-13T00:00:00Z,1389571200,2014,0,0,13.0,13.0,56.726,-31.0822,974.1,7.81,-999.0,yes,yes,no,300234011756730,BD2GI,AOML,SELFOSS,North
2014-01-13T01:00:28Z,1389574829,2014,1,0,13.042,13.0,56.726,-31.0822,974.8,7.86,-999.0,yes,yes,no,300234011756730,BD2GI,AOML,SELFOSS,North
2014-01-13T01:59:31Z,1389578371,2014,2,0,13.083,13.0,56.726,-31.0822,975.4,7.96,-999.0,yes,yes,no,300234011756730,BD2GI,AOML,SELFOSS,North
2014-01-13T03:00:00Z,1389582000,2014,3,0,13.125,13.125,56.7136,-31.0322,976.7,7.97,-999.0,yes,yes,no,300234011756730,BD2GI,AOML,SELFOSS,North
2014-01-13T04:00:28Z,1389585629,2014,4,0,13.167,13.125,56.7136,-31.0322,977.4,7.97,-999.0,yes,yes,no,300234011756730,BD2GI,AOML,SELFOSS,North
2014-01-13T04:59:31Z,1389589171,2014,5,0,13.208,13.125,56.7136,-31.0322,979.1,7.96,-999.0,yes,yes,no,300234011756730,BD2GI,AOML,SELFOSS,North
2014-01-13T06:00:00Z,1389592800,2014,6,0,13.25,13.25,56.7052,-30.9912,979.4,7.98,-999.0,yes,yes,no,300234011756730,BD2GI,AOML,SELFOSS,North
2014-01-13T07:00:28Z,1389596429,2014,7,0,13.292,13.25,56.7052,-30.9912,980.1,8.02,-999.0,yes,yes,no,300234011756730,BD2GI,AOML,SELFOSS,North
2014-01-13T07:59:31Z,1389599971,2014,8,0,13.333,13.25,56.7052,-30.9912,981.0,8.02,-999.0,yes,yes,no,300234011756730,BD2GI,AOML,SELFOSS,North
2014-01-13T09:00:00Z,1389603600,2014,9,0,13.375,13.375,56.7104,-30.9524,982.2,8.01,-999.0,yes,yes,no,300234011756730,BD2GI,AOML,SELFOSS,North
2014-01-13T10:00:28Z,1389607229,2014,10,0,13.417,13.375,56.7104,-30.9524,982.8,8.02,-999.0,yes,yes,no,300234011756730,BD2GI,AOML,SELFOSS,North
2014-01-13T10:59:31Z,1389610771,2014,11,0,13.458,13.375,56.7104,-30.9524,983.4,8.02,-999.0,yes,yes,no,300234011756730,BD2GI,AOML,SELFOSS,North
2014-01-13T12:00:00Z,1389614400,2014,12,0,13.5,13.5,56.713,-30.9118,984.1,8.02,-999.0,yes,yes,no,300234011756730,BD2GI,AOML,SELFOSS,North
2014-01-13T13:00:28Z,1389618029,2014,13,0,13.542,13.5,56.713,-30.9118,984.7,8.02,-999.0,yes,yes,no,300234011756730,BD2GI,AOML,SELFOSS,North
2014-01-13T13:59:31Z,1389621571,2014,14,0,13.583,13.5,56.713,-30.9118,984.8,8.02,-999.0,yes,yes,no,300234011756730,BD2GI,AOML,SELFOSS,North
2014-01-13T15:00:00Z,1389625200,2014,15,0,13.625,13.625,56.721,-30.8762,984.5,8.03,-999.0,yes,yes,no,300234011756730,BD2GI,AOML,SELFOSS,North
2014-01-13T16:00:28Z,1389628829,2014,16,0,13.667,13.625,56.721,-30.8762,984.3,8.04,-999.0,yes,yes,no,300234011756730,BD2GI,AOML,SELFOSS,North
2014-01-13T16:59:31Z,1389632371,2014,17,0,13.708,13.625,56.721,-30.8762,984.0,8.07,-999.0,yes,yes,no,300234011756730,BD2GI,AOML,SELFOSS,North
2014-01-13T18:00:00Z,1389636000,2014,18,0,13.75,13.75,56.7362,-30.8502,984.0,8.1,-999.0,yes,yes,no,300234011756730,BD2GI,AOML,SELFOSS,North
2014-01-13T19:00:28Z,1389639629,2014,19,0,13.792,13.75,56.7362,-30.8502,983.5,8.12,-999.0,yes,yes,no,300234011756730,BD2GI,AOML,SELFOSS,North
2014-01-13T19:59:31Z,1389643171,2014,20,0,13.833,13.75,56.7362,-30.8502,982.2,8.15,-999.0,yes,yes,no,300234011756730,BD2GI,AOML,SELFOSS,North
2014-01-13T21:00:00Z,1389646800,2014,21,0,13.875,13.875,56.7532,-30.834,980.8,8.15,-999.0,yes,yes,no,300234011756730,BD2GI,AOML,SELFOSS,North
2014-01-13T22:00:28Z,1389650429,2014,22,0,13.917,13.875,56.7532,-30.834,979.8,8.14,-999.0,yes,yes,no,300234011756730,BD2GI,AOML,SELFOSS,North
2014-01-13T22:59:31Z,1389653971,2014,23,0,13.958,13.875,56.7532,-30.834,978.2,8.1,-999.0,yes,yes,no,300234011756730,BD2GI,AOML,SELFOSS,North
2014-01-14T00:00:00Z,1389657600,2014,0,0,14.0,14.0,56.7716,-30.832,977.0,8.06,-999.0,yes,yes,no,300234011756730,BD2GI,AOML,SELFOSS,North
2014-01-14T01:00:28Z,1389661229,2014,1,0,14.042,14.0,56.7716,-30.832,975.3,8.04,-999.0,yes,yes,no,300234011756730,BD2GI,AOML,SELFOSS,North
2014-01-14T01:59:31Z,1389664771,2014,2,0,14.083,14.0,56.7716,-30.832,974.3,8.02,-999.0,yes,yes,no,300234011756730,BD2GI,AOML,SELFOSS,North
2014-01-14T03:00:00Z,1389668400,2014,3,0,14.125,14.125,56.787,-30.8492,972.9,8.0,-999.0,yes,yes,no,300234011756730,BD2GI,AOML,SELFOSS,North
2014-01-14T04:00:28Z,1389672029,2014,4,0,14.167,14.125,56.787,-30.8492,972.0,8.0,-999.0,yes,yes,no,300234011756730,BD2GI,AOML,SELFOSS,North
2014-01-14T04:59:31Z,1389675571,2014,5,0,14.208,14.125,56.787,-30.8492,971.2,8.0,-999.0,yes,yes,no,300234011756730,BD2GI,AOML,SELFOSS,North
2014-01-14T06:00:00Z,1389679200,2014,6,0,14.25,14.25,56.7962,-30.877,970.7,7.99,-999.0,yes,yes,no,300234011756730,BD2GI,AOML,SELFOSS,North
2014-01-14T07:00:28Z,1389682829,2014,7,0,14.292,14.25,56.7962,-30.877,970.0,7.98,-999.0,yes,yes,no,300234011756730,BD2GI,AOML,SELFOSS,North
2014-01-14T07:59:31Z,1389686371,2014,8,0,14.333,14.25,56.7962,-30.877,969.7,7.99,-999.0,yes,yes,no,300234011756730,BD2GI,AOML,SELFOSS,North
2014-01-14T09:00:00Z,1389690000,2014,9,0,14.375,14.375,56.798,-30.9064,969.9,7.99,-999.0,yes,yes,no,300234011756730,BD2GI,AOML,SELFOSS,North
2014-01-14T10:00:28Z,1389693629,2014,10,0,14.417,14.375,56.798,-30.9064,970.7,8.0,-999.0,yes,yes,no,300234011756730,BD2GI,AOML,SELFOSS,North
2014-01-14T10:59:31Z,1389697171,2014,11,0,14.458,14.375,56.798,-30.9064,971.4,8.0,-999.0,yes,yes,no,300234011756730,BD2GI,AOML,SELFOSS,North
2014-01-14T12:00:00Z,1389700800,2014,12,0,14.5,14.5,56.7856,-30.9154,972.2,8.01,-999.0,yes,yes,no,300234011756730,BD2GI,AOML,SELFOSS,North
2014-01-14T13:00:28Z,1389704429,2014,13,0,14.542,14.5,56.7856,-30.9154,972.8,8.01,-999.0,yes,yes,no,300234011756730,BD2GI,AOML,SELFOSS,North
2014-01-14T13:59:31Z,1389707971,2014,14,0,14.583,14.5,56.7856,-30.9154,973.1,8.02,-999.0,yes,yes,no,300234011756730,BD2GI,AOML,SELFOSS,North
2014-01-14T15:00:00Z,1389711600,2014,15,0,14.625,14.625,56.7752,-30.919,973.6,8.04,-999.0,yes,yes,no,300234011756730,BD2GI,AOML,SELFOSS,North
2014-01-14T16:00:28Z,1389715229,2014,16,0,14.667,14.625,56.7752,-30.919,974.0,8.07,-999.0,yes,yes,no,300234011756730,BD2GI,AOML,SELFOSS,North
2014-01-14T16:59:31Z,1389718771,2014,17,0,14.708,14.625,56.7752,-30.919,974.8,8.1,-999.0,yes,yes,no,300234011756730,BD2GI,AOML,SELFOSS,North
2014-01-14T18:00:00Z,1389722400,2014,18,0,14.75,14.75,56.7628,-30.9284,975.8,8.11,-999.0,yes,yes,no,300234011756730,BD2GI,AOML,SELFOSS,North
2014-01-14T19:00:28Z,1389726029,2014,19,0,14.792,14.75,56.7628,-30.9284,977.1,8.1,-999.0,yes,yes,no,300234011756730,BD2GI,AOML,SELFOSS,North
2014-01-14T19:59:31Z,1389729571,2014,20,0,14.833,14.75,56.7628,-30.9284,978.1,8.11,-999.0,yes,yes,no,300234011756730,BD2GI,AOML,SELFOSS,North
2014-01-14T21:00:00Z,1389733200,2014,21,0,14.875,14.875,56.7504,-30.9266,979.3,8.09,-999.0,yes,yes,no,300234011756730,BD2GI,AOML,SELFOSS,North
2014-01-14T22:00:28Z,1389736829,2014,22,0,14.917,14.875,56.7504,-30.9266,980.7,8.05,-999.0,yes,yes,no,300234011756730,BD2GI,AOML,SELFOSS,North
2014-01-14T22:59:31Z,1389740371,2014,23,0,14.958,14.875,56.7504,-30.9266,982.6,8.04,-999.0,yes,yes,no,300234011756730,BD2GI,AOML,SELFOSS,North
2014-01-15T00:00:00Z,1389744000,2014,0,0,15.0,15.0,56.724,-30.9234,984.5,8.01,-999.0,yes,yes,no,300234011756730,BD2GI,AOML,SELFOSS,North
2014-01-15T01:00:28Z,1389747629,2014,1,0,15.042,15.0,56.724,-30.9234,986.3,7.99,-999.0,yes,yes,no,300234011756730,BD2GI,AOML,SELFOSS,North
2014-01-15T01:59:31Z,1389751171,2014,2,0,15.083,15.0,56.724,-30.9234,987.8,7.99,-999.0,yes,yes,no,300234011756730,BD2GI,AOML,SELFOSS,North
2014-01-15T03:00:00Z,1389754800,2014,3,0,15.125,15.125,56.6882,-30.924,989.6,8.01,-999.0,yes,yes,no,300234011756730,BD2GI,AOML,SELFOSS,North
2014-01-15T04:00:28Z,1389758429,2014,4,0,15.167,15.125,56.6882,-30.924,990.7,8.03,-999.0,yes,yes,no,300234011756730,BD2GI,AOML,SELFOSS,North
2014-01-15T04:59:31Z,1389761971,2014,5,0,15.208,15.125,56.6882,-30.924,992.4,8.05,-999.0,yes,yes,no,300234011756730,BD2GI,AOML,SELFOSS,North
2014-01-15T06:00:00Z,1389765600,2014,6,0,15.25,15.25,56.6526,-30.922,993.3,8.03,-999.0,yes,yes,no,300234011756730,BD2GI,AOML,SELFOSS,North
2014-01-15T07:00:28Z,1389769229,2014,7,0,15.292,15.25,56.6526,-30.922,994.2,7.99,-999.0,yes,yes,no,300234011756730,BD2GI,AOML,SELFOSS,North
2014-01-15T07:59:31Z,1389772771,2014,8,0,15.333,15.25,56.6526,-30.922,995.4,7.97,-999.0,yes,yes,no,300234011756730,BD2GI,AOML,SELFOSS,North
2014-01-15T09:00:00Z,1389776400,2014,9,0,15.375,15.375,56.63,-30.9138,996.5,7.95,-999.0,yes,yes,no,300234011756730,BD2GI,AOML,SELFOSS,North
2014-01-15T10:00:28Z,1389780029,2014,10,0,15.417,15.375,56.63,-30.9138,998.0,7.95,-999.0,yes,yes,no,300234011756730,BD2GI,AOML,SELFOSS,North
2014-01-15T10:59:31Z,1389783571,2014,11,0,15.458,15.375,56.63,-30.9138,999.0,7.96,-999.0,yes,yes,no,300234011756730,BD2GI,AOML,SELFOSS,North
2014-01-15T12:00:00Z,1389787200,2014,12,0,15.5,15.5,56.608,-30.8876,1000.0,7.95,-999.0,yes,yes,no,300234011756730,BD2GI,AOML,SELFOSS,North
2014-01-15T13:00:28Z,1389790829,2014,13,0,15.542,15.5,56.608,-30.8876,1000.5,7.95,-999.0,yes,yes,no,300234011756730,BD2GI,AOML,SELFOSS,North
2014-01-15T13:59:31Z,1389794371,2014,14,0,15.583,15.5,56.608,-30.8876,1001.0,7.96,-999.0,yes,yes,no,300234011756730,BD2GI,AOML,SELFOSS,North
2014-01-15T15:00:00Z,1389798000,2014,15,0,15.625,15.625,56.578,-30.8584,1001.4,7.98,-999.0,yes,yes,no,300234011756730,BD2GI,AOML,SELFOSS,North
2014-01-15T16:00:28Z,1389801629,2014,16,0,15.667,15.625,56.578,-30.8584,1002.1,7.96,-999.0,yes,yes,no,300234011756730,BD2GI,AOML,SELFOSS,North
2014-01-15T16:59:31Z,1389805171,2014,17,0,15.708,15.625,56.578,-30.8584,1002.7,7.94,-999.0,yes,yes,no,300234011756730,BD2GI,AOML,SELFOSS,North
2014-01-15T18:00:00Z,1389808800,2014,18,0,15.75,15.75,56.5484,-30.8626,1003.4,7.9,-999.0,yes,yes,no,300234011756730,BD2GI,AOML,SELFOSS,North
2014-01-15T19:00:28Z,1389812429,2014,19,0,15.792,15.75,56.5484,-30.8626,1003.7,7.88,-999.0,yes,yes,no,300234011756730,BD2GI,AOML,SELFOSS,North
2014-01-15T19:59:31Z,1389815971,2014,20,0,15.833,15.75,56.5484,-30.8626,1003.7,7.88,-999.0,yes,yes,no,300234011756730,BD2GI,AOML,SELFOSS,North
2014-01-15T21:00:00Z,1389819600,2014,21,0,15.875,15.875,56.5302,-30.8654,1003.5,7.89,-999.0,yes,yes,no,300234011756730,BD2GI,AOML,SELFOSS,North
2014-01-15T22:00:28Z,1389823229,2014,22,0,15.917,15.875,56.5302,-30.8654,1003.1,7.88,-999.0,yes,yes,no,300234011756730,BD2GI,AOML,SELFOSS,North
2014-01-15T22:59:31Z,1389826771,2014,23,0,15.958,15.875,56.5302,-30.8654,1002.5,7.87,-999.0,yes,yes,no,300234011756730,BD2GI,AOML,SELFOSS,North
2014-01-16T00:00:00Z,1389830400,2014,0,0,16.0,16.0,56.5194,-30.8544,1001.4,7.86,-999.0,yes,yes,no,300234011756730,BD2GI,AOML,SELFOSS,North
2014-01-16T01:00:28Z,1389834029,2014,1,0,16.042,16.0,56.5194,-30.8544,1000.1,7.89,-999.0,yes,yes,no,300234011756730,BD2GI,AOML,SELFOSS,North
2014-01-16T01:59:31Z,1389837571,2014,2,0,16.083,16.0,56.5194,-30.8544,998.5,7.89,-999.0,yes,yes,no,300234011756730,BD2GI,AOML,SELFOSS,North
2014-01-16T03:00:00Z,1389841200,2014,3,0,16.125,16.125,56.5136,-30.8448,996.5,7.91,-999.0,yes,yes,no,300234011756730,BD2GI,AOML,SELFOSS,North
2014-01-16T04:00:28Z,1389844829,2014,4,0,16.167,16.125,56.5136,-30.8448,993.9,7.85,-999.0,yes,yes,no,300234011756730,BD2GI,AOML,SELFOSS,North
2014-01-16T04:59:31Z,1389848371,2014,5,0,16.208,16.125,56.5136,-30.8448,991.5,7.86,-999.0,yes,yes,no,300234011756730,BD2GI,AOML,SELFOSS,North
2014-01-16T06:00:00Z,1389852000,2014,6,0,16.25,16.25,56.5174,-30.8648,990.0,7.82,-999.0,yes,yes,no,300234011756730,BD2GI,AOML,SELFOSS,North
2014-01-16T07:00:28Z,1389855629,2014,7,0,16.292,16.25,56.5174,-30.8648,988.5,7.85,-999.0,yes,yes,no,300234011756730,BD2GI,AOML,SELFOSS,North
2014-01-16T07:59:31Z,1389859171,2014,8,0,16.333,16.25,56.5174,-30.8648,987.5,7.84,-999.0,yes,yes,no,300234011756730,BD2GI,AOML,SELFOSS,North
2014-01-16T09:00:00Z,1389862800,2014,9,0,16.375,16.375,56.5272,-30.904,986.9,7.86,-999.0,yes,yes,no,300234011756730,BD2GI,AOML,SELFOSS,North
2014-01-16T10:00:28Z,1389866429,2014,10,0,16.417,16.375,56.5272,-30.904,987.2,7.86,-999.0,yes,yes,no,300234011756730,BD2GI,AOML,SELFOSS,North
2014-01-16T10:59:31Z,1389869971,2014,11,0,16.458,16.375,56.5272,-30.904,987.8,7.87,-999.0,yes,yes,no,300234011756730,BD2GI,AOML,SELFOSS,North
2014-01-16T12:00:00Z,1389873600,2014,12,0,16.5,16.5,56.5326,-30.9406,989.8,7.88,-999.0,yes,yes,no,300234011756730,BD2GI,AOML,SELFOSS,North
2014-01-16T13:00:28Z,1389877229,2014,13,0,16.542,16.5,56.5326,-30.9406,992.2,7.89,-999.0,yes,yes,no,300234011756730,BD2GI,AOML,SELFOSS,North
2014-01-16T13:59:31Z,1389880771,2014,14,0,16.583,16.5,56.5326,-30.9406,994.2,7.88,-999.0,yes,yes,no,300234011756730,BD2GI,AOML,SELFOSS,North
2014-01-16T15:00:00Z,1389884400,2014,15,0,16.625,16.625,56.5212,-30.9406,995.7,7.89,-999.0,yes,yes,no,300234011756730,BD2GI,AOML,SELFOSS,North
2014-01-16T16:00:28Z,1389888029,2014,16,0,16.667,16.625,56.5212,-30.9406,996.4,7.88,-999.0,yes,yes,no,300234011756730,BD2GI,AOML,SELFOSS,North
2014-01-16T16:59:31Z,1389891571,2014,17,0,16.708,16.625,56.5212,-30.9406,997.1,7.87,-999.0,yes,yes,no,300234011756730,BD2GI,AOML,SELFOSS,North
2014-01-16T18:00:00Z,1389895200,2014,18,0,16.75,16.75,56.4996,-30.9148,997.8,7.86,-999.0,yes,yes,no,300234011756730,BD2GI,AOML,SELFOSS,North
2014-01-16T19:00:28Z,1389898829,2014,19,0,16.792,16.75,56.4996,-30.9148,999.1,7.86,-999.0,yes,yes,no,300234011756730,BD2GI,AOML,SELFOSS,North
2014-01-16T19:59:31Z,1389902371,2014,20,0,16.833,16.75,56.4996,-30.9148,1000.2,7.87,-999.0,yes,yes,no,300234011756730,BD2GI,AOML,SELFOSS,North
2014-01-16T21:00:00Z,1389906000,2014,21,0,16.875,16.875,56.4744,-30.887,1001.0,7.87,-999.0,yes,yes,no,300234011756730,BD2GI,AOML,SELFOSS,North
2014-01-16T22:00:28Z,1389909629,2014,22,0,16.917,16.875,56.4744,-30.887,1001.4,7.88,-999.0,yes,yes,no,300234011756730,BD2GI,AOML,SELFOSS,North
2014-01-16T22:59:31Z,1389913171,2014,23,0,16.958,16.875,56.4744,-30.887,1001.4,7.88,-999.0,yes,yes,no,300234011756730,BD2GI,AOML,SELFOSS,North
2014-01-17T00:00:00Z,1389916800,2014,0,0,17.0,17.0,56.4556,-30.856,1001.9,7.86,-999.0,yes,yes,no,300234011756730,BD2GI,AOML,SELFOSS,North
2014-01-17T01:00:28Z,1389920429,2014,1,0,17.042,17.0,56.4556,-30.856,1001.5,7.75,-999.0,yes,yes,no,300234011756730,BD2GI,AOML,SELFOSS,North
2014-01-17T01:59:31Z,1389923971,2014,2,0,17.083,17.0,56.4556,-30.856,1001.4,7.72,-999.0,yes,yes,no,300234011756730,BD2GI,AOML,SELFOSS,North
2014-01-17T03:00:00Z,1389927600,2014,3,0,17.125,17.125,56.448,-30.817,1001.4,7.66,-999.0,yes,yes,no,300234011756730,BD2GI,AOML,SELFOSS,North
2014-01-17T04:00:28Z,1389931229,2014,4,0,17.167,17.125,56.448,-30.817,1000.8,7.63,-999.0,yes,yes,no,300234011756730,BD2GI,AOML,SELFOSS,North
2014-01-17T04:59:31Z,1389934771,2014,5,0,17.208,17.125,56.448,-30.817,1000.0,7.62,-999.0,yes,yes,no,300234011756730,BD2GI,AOML,SELFOSS,North
2014-01-17T06:00:00Z,1389938400,2014,6,0,17.25,17.25,56.4394,-30.7774,999.7,7.59,-999.0,yes,yes,no,300234011756730,BD2GI,AOML,SELFOSS,North
2014-01-17T07:00:28Z,1389942029,2014,7,0,17.292,17.25,56.4394,-30.7774,999.3,7.56,-999.0,yes,yes,no,300234011756730,BD2GI,AOML,SELFOSS,North
2014-01-17T07:59:31Z,1389945571,2014,8,0,17.333,17.25,56.4394,-30.7774,999.1,7.53,-999.0,yes,yes,no,300234011756730,BD2GI,AOML,SELFOSS,North